Tracking 31027 objects as of 18-Jul-2025
HD Live streaming from Space Station
objects crossing your sky now

INTELSAT 33E DEB

Track INTELSAT 33E DEB now!


NORAD ID: 61989
Int'l Code: 2016-053F
Perigee: 34,541.2 km
Apogee: 38,323.4 km
Inclination: 1.7 °
Period: 1,468.8 minutes
Semi major axis: 42803 km
RCS: Unknown
Launch date: August 24, 2016
Source: International Telecommunications Satellite Organization (ITSO)
Launch site: FRENCH GUIANA (FRGUI)

Note: This is SATELLITE DEBRIS
Your satellite tracking list
Your tracking list is empty




NASA's NSSDC Master Catalog

Two Line Element Set (TLE):
1 61989U 16053F   25195.49500503 -.00000083  00000-0  00000-0 0  9998
2 61989   1.6865 131.7851 0441818  32.3067 329.5679  0.98036336  2533
Source of the keplerian elements: AFSPC